GALAXY 18 (G-18)

Last updated on Tue Sep 16 2025 00:02:46 GMT+0000 (Coordinated Universal Time)

1 32951U 08024A 25258.56013584 .00000009 00000+0 00000+0 0 9995 2 32951 0.0018 81.5822 0003116 105.7667 246.0531 1.00271624 43090
UTC large
Height (km)
Speed (km/s)
/
Latitude / Longitude
Inclination (degrees)
Orbital Period (minutes)
Azimuth
Elevation
Range (km)
Doppler Factor

Next 0 passes for location: London (51.5072 / 0.1276)

Sorry there are no passes over London.